Location: Coupvray
(48.8929°N, 2.7967°E)
Time: 04:28:13
(UTC+00:00)

Cosmos 1190 Rocket - Pass Details

Date: 14 July 2020
Orbit: 756 x 781 km, 74.1° (Epoch: 06 August)

Event Time Altitude Azimuth Distance (km) Brightness Sun altitude
Exits shadow 02:06:38 20° 213° (SSW) 1,701 5.1 -13.6°
Maximum altitude 02:10:15 72° 295° (WNW) 809 4.1 -13.3°
Drops below altitude 10° 02:15:31 10° 20° (NNE) 2,322 7.9 -12.8°
Sets 02:17:56 0° 22° (NNE) 3,257 9.1 -12.6°
